Weather in Gornyj Shchit

Russia / Sverdlovsk Oblast     56°41′21″N   60°31′10″E
temp.,
°C
wind,
m/s
gust,
m/s
humid.,
%
clouds,
%
prec.,
mm/h
press.,
hPa
HPBL,
m
25 january, mon
mon2523:00−17sse2297100 0.6 102844
02:00−12ssw0197100 0.1 102721
05:00−8w2496100 0.2 102797
08:00−11wnw1195100 0.0 102821
11:00−6sse1196100 0.3 102961
14:00−1ssw2699100 0.8 1028232
17:000w51188100 0.8 1028651
20:00−3w3129290 0.0 1028459
26 january, tue
tue2623:00−3wsw4138862 0.0 1029550
02:00−3w5148759 0.0 1028659
05:00−3w5148779 0.0 1029673
08:00−4w5138893 0.0 1029583
11:00−5w5148795 0.0 1029596
14:00−2w41187100 0.0 1028733
17:00−2wsw41187100 0.0 1028782
20:00−3w41188100 0.0 1027837
27 january, wed
wed2723:00−5w41388100 0.0 1027667
02:00−6w41291100 0.0 1027614
05:00−5w51289100 0.0 1028613
08:00−6w4128998 0.0 1028559
11:00−6w4129098 0.0 1028524
14:00−3w5128787 0.0 1029571
17:00−4wsw3128974 0.0 1028514
20:00−6sw3119221 0.0 1027346
28 january, thu
thu2823:00−4sw4138860 0.0 1025625
02:00−4wsw51582100 0.0 1024661
05:00−4wsw61778100 0.0 1023665
08:00−3wsw61775100 0.0 1022666
11:00−2wsw71874100 0.0 1021690
14:00−1wsw61574100 0.0 1021741
17:00−2w51482100 0.0 1021756
20:00−4w41284100 0.0 1023488
29 january, fri
fri2923:00−6w41187100 0.0 1023371
02:00−7w2891100 0.0 1024247
05:00−7w2291100 0.0 102442
08:00−9wnw018979 0.0 102421
11:00−7se118989 0.0 102531
14:00−5e2490100 0.0 1025243
17:00−7e3795100 0.0 1024260
20:00−9e41096100 0.0 1024350